User: anonymous   Login
Location: *
(60.1759°S, 155.0663°W)
Time: 19:57:16
(UTC+00:00)
Language:

Meteor 1-31 Rocket - Orbit

View from above orbital plane
View from above orbital plane
View from above satellite
View from above satellite

Ground track
Ground track

The orbit data is extracted from the following two-line orbital elements,

1 12586U 81065B   19322.53371918  .00000153  00000-0  13175-4 0  9996
2 12586  97.5983 301.4188 0019968  48.0830 312.2099 15.10613339 89988
Epoch (UTC): 18 November 2019 12:48:33
Eccentricity: 0.0019968
inclination: 97.5983°
perigee height: 520 km
apogee height: 548 km
right ascension of ascending node: 301.4188°
argument of perigee: 48.0830°
revolutions per day: 15.10613339
mean anomaly at epoch: 312.2099°
orbit number at epoch: 8998

The dashed part of the orbit path shows where the satellite is in the earth's shadow,  

DLR